#timestamp,LO_Frequency,Hit,StdDev 
1514588415.8,286047005.5,P
1514588435.7,286047003.4,P
1514588455.5,286047004.6,P
1514588475.3,286047007.5,Y
1514588495.2,286047000.5,P
1514588515.9,286046999.7,N
1514588535.7,286047001.7,N
1514588555.5,286046997.8,N
1514588575.4,286046993.6,N
1514588595.2,286046994.4,N
1514588615.0,286046991.1,N
1514588615.9,286046991.1,N
1514588635.8,286046992.9,N
1514588655.6,286046994.0,N
1514588675.4,286046993.6,N
1514588695.3,286046994.0,N
1514588715.1,286046992.3,N
1514588716.0,286046992.3,N
1514588735.8,286046994.0,N
1514588755.7,286046996.3,N
1514588775.5,286046999.6,N
1514588795.3,286046999.8,N
1514588815.1,286047002.5,N
1514588835.9,286047000.1,N
1514588855.7,286046998.2,N
1514588875.5,286047000.0,N
1514588895.4,286047000.0,N
1514588915.2,286047001.8,N
1514588935.0,286047005.6,N
1514588935.9,286047005.6,N
1514588955.8,286047009.2,N
1514588975.6,286047008.5,N
1514588995.4,286047006.8,N
1514589015.3,286047006.6,N
1514589035.1,286047009.1,N
1514589036.0,286047009.1,N
1514589055.8,286047009.3,N
1514589075.7,286047010.6,N
1514589095.5,286047008.6,N
1514589115.3,286047007.7,N
1514589135.2,286047007.7,N
1514589155.9,286047010.6,N
1514589175.7,286047008.4,N
1514589195.5,286047006.2,N
1514589215.4,286047006.7,N
1514589235.2,286047008.0,N
1514589255.0,286047009.6,N
1514589255.9,286047009.6,N
1514589275.8,286047011.5,N
1514589295.6,286047013.9,Y
1514589315.4,286047002.9,P
1514589335.3,286047004.8,P
1514589355.1,286047005.6,P
1514589375.8,286047003.2,N
1514589395.7,286047001.3,N
1514589415.5,286047001.8,N
1514589435.3,286047003.4,N
1514589455.2,286047001.8,N
1514589475.9,286047002.0,N
1514589495.7,286047002.1,N
1514589515.6,286047001.4,N
1514589535.4,286046999.8,N
1514589555.2,286046998.2,N
1514589575.1,286046997.3,N
1514589576.0,286046997.3,N
1514589595.8,286046997.0,N
1514589615.6,286046997.8,N
1514589635.4,286046997.7,N
1514589655.3,286046996.3,N
1514589675.1,286046993.8,N
1514589695.8,286046998.9,N
1514589715.7,286046998.3,N
1514589735.5,286046995.7,N
1514589755.3,286046993.6,N
1514589775.2,286046995.4,N
1514589795.9,286046997.6,N
1514589815.7,286046995.8,N
1514589835.6,286046995.4,N
1514589855.4,286046994.8,N
1514589875.2,286046990.2,N
1514589895.0,286046990.1,N
1514589896.0,286046990.1,N
1514589915.8,286046994.5,N
1514589935.6,286046994.1,N
1514589955.4,286046992.6,N
1514589975.3,286046993.3,N
1514589995.1,286046993.8,N
1514590015.8,286046991.3,N
1514590035.7,286046987.5,Y
1514590055.5,286046990.7,P
1514590075.3,286046989.7,P
1514590095.2,286046991.1,P
1514590115.9,286046993.2,N
1514590135.7,286046994.2,N
1514590155.6,286046992.3,Y
1514590175.4,286047000.4,P
1514590195.2,286046999.8,N
1514590215.1,286046998.9,N
1514590216.0,286046998.9,N
1514590235.8,286046999.3,N
1514590255.6,286046999.4,N
1514590275.5,286046997.1,N
1514590295.3,286047000.7,N
1514590315.1,286047000.7,N
1514590335.9,286046996.5,N
1514590355.7,286046996.5,N
1514590375.5,286047002.2,N
1514590395.3,286047003.2,N
1514590415.2,286047001.5,N
1514590435.0,286047001.7,N
1514590435.9,286047001.7,N
1514590455.7,286047002.1,N
1514590475.6,286047001.9,N
1514590495.4,286047006.0,N
1514590515.2,286047005.5,N
1514590535.1,286047007.6,N
1514590536.0,286047007.6,N
1514590555.8,286047006.4,N
1514590575.6,286047006.6,N
1514590595.5,286047004.8,N
1514590615.3,286047005.2,N
1514590635.1,286047003.0,N
1514590655.9,286047005.5,N
1514590675.7,286047004.5,N
1514590695.5,286047007.3,N
1514590715.3,286047006.1,N
1514590735.2,286047012.0,Y
1514590755.0,286047006.2,P
1514590755.9,286047006.2,P
1514590775.8,286047009.5,P
1514590795.6,286047009.4,Y
1514590815.4,286047008.5,P
1514590835.3,286047006.6,P
1514590855.1,286047012.4,P
1514590856.0,286047012.4,Y
1514590875.8,286047003.1,P
1514590895.7,286047006.1,N
1514590915.5,286047009.4,P
1514590935.3,286047012.6,Y
1514590955.2,286047009.2,P
1514590975.9,286047007.3,P
1514590995.7,286047006.4,P
1514591015.6,286047009.9,Y
1514591035.4,286047003.2,P
1514591055.2,286047009.0,P
1514591075.1,286047008.7,P
1514591076.0,286047008.7,Y
1514591095.8,286047002.8,P
1514591115.6,286047001.1,N
1514591135.5,286047001.7,N
1514591155.3,286047001.9,N
1514591175.1,286047003.0,N
1514591195.9,286047006.8,Y
1514591215.7,286047005.7,P
1514591235.5,286047004.4,P
1514591255.4,286047000.5,N
1514591275.2,286047004.3,N
1514591295.0,286047005.9,Y
1514591295.9,286047005.9,P
1514591315.8,286047004.1,P
1514591335.6,286047002.5,N
1514591355.4,286047002.5,N
1514591375.3,286046998.1,N
1514591395.1,286046998.5,N
1514591396.0,286046998.5,N
1514591415.8,286046995.3,N
1514591435.7,286046993.2,N
1514591455.5,286046991.3,N
1514591475.3,286046985.8,Y
1514591495.2,286046987.1,P
1514591515.9,286046985.5,N
1514591535.7,286046983.9,N
1514591555.6,286046986.8,N
1514591575.4,286046987.3,N
1514591595.2,286046985.6,N
1514591615.1,286046984.4,Y
1514591616.0,286046984.4,P
1514591635.8,286046997.5,N
1514591655.6,286046997.1,N
1514591675.4,286047001.1,N
1514591695.3,286047000.4,N
1514591715.1,286046995.2,N
1514591735.8,286046993.2,N
1514591755.7,286046988.9,N
1514591775.5,286046991.4,N
1514591795.3,286046987.3,N
1514591815.2,286046986.1,N
1514591835.9,286046982.9,Y
1514591855.7,286046989.6,P
1514591875.6,286046987.8,P
1514591895.4,286046982.3,P
1514591915.2,286046979.6,Y
1514591935.1,286046991.5,P
1514591936.0,286046991.5,P
1514591955.8,286046990.8,P
1514591975.6,286046993.1,Y
1514591995.5,286046996.5,P
